Weather History for Farmington, NM

Change the Weather History Date:

Thursday, February 14, 2013

  Actual Average Record
Temperature  
Mean Temperature 32 °F -  
Max Temperature 48 °F 47 °F 63 °F (2014)
Min Temperature 15 °F 23 °F 10 °F (2004)
Degree Days  
Heating Degree Days 34    
Moisture  
Dew Point 17 °F    
Average Humidity 55    
Maximum Humidity 88    
Minimum Humidity 20    
Precipitation  
Precipitation 0.00 in - - ()
Sea Level Pressure  
Sea Level Pressure 30.21 in    
Wind  
Wind Speed 7 mph (WNW)    
Max Wind Speed 26 mph    
Max Gust Speed 32 mph    
Visibility 10 miles    
Events      
Averages and records for this station are not official NWS values.
T = Trace of Precipitation, MM = Missing Value Source: NWS Daily Summary

Daily Weather History Graph

Daily Weather History Graph

Search for Another Location

Airport:

Trip Planner

Search our weather history database for the weather conditions in past years. The results will help you decide how hot, cold, wet, or windy it might be!

Date:

Astronomy

Feb. 14, 2013 Rise Set
Actual Time 7:01 AM MST 5:52 PM MST
Civil Twilight 6:35 AM MST 6:19 PM MST
Nautical Twilight 6:05 AM MST 6:49 PM MST
Astronomical Twilight 5:35 AM MST 7:19 PM MST
Moon 9:14 AM MST (2/14) 10:48 PM MST (2/14)
Length of Visible Light 11h 43m
Length of Day
10h 50m
Waxing Crescent, 22% of the Moon is Illuminated
Feb 14
Waxing Crescent
Feb 17
First Quarter
Feb 25
Full
Mar 4
Last Quarter
Mar 11
New

Hourly Weather History & Observations

Time (MST) Temp. Windchill Dew Point Humidity Pressure Visibility Wind Dir Wind Speed Gust Speed Precip Events Conditions
12:53 AM 23.0 °F 14.7 °F 16.0 °F 74% 30.21 in 10.0 mi NE 6.9 mph - N/A   Clear
1:53 AM 21.0 °F 14.6 °F 16.0 °F 81% 30.20 in 10.0 mi NE 4.6 mph - N/A   Clear
2:53 AM 19.9 °F - 15.1 °F 81% 30.19 in 10.0 mi Calm Calm - N/A   Clear
3:53 AM 19.0 °F 13.9 °F 16.0 °F 88% 30.18 in 10.0 mi ENE 3.5 mph - N/A   Clear
4:53 AM 18.0 °F 12.7 °F 14.0 °F 84% 30.19 in 10.0 mi NNE 3.5 mph - N/A   Clear
5:53 AM 17.1 °F 11.7 °F 14.0 °F 88% 30.23 in 10.0 mi NE 3.5 mph - N/A   Clear
6:53 AM 15.1 °F - 12.0 °F 88% 30.26 in 10.0 mi Calm Calm - N/A   Clear
7:53 AM 21.0 °F - 16.0 °F 81% 30.25 in 10.0 mi Calm Calm - N/A   Clear
8:53 AM 27.0 °F - 19.9 °F 75% 30.25 in 10.0 mi Calm Calm - N/A   Clear
9:53 AM 30.0 °F 26.5 °F 19.9 °F 66% 30.24 in 10.0 mi West 3.5 mph - N/A   Clear
10:53 AM 37.9 °F 30.9 °F 21.0 °F 51% 30.20 in 10.0 mi WNW 10.4 mph - N/A   Clear
11:53 AM 43.0 °F 35.1 °F 19.0 °F 38% 30.16 in 10.0 mi WNW 17.3 mph 27.6 mph N/A   Clear
12:53 PM 45.0 °F 35.8 °F 19.0 °F 36% 30.15 in 10.0 mi WNW 26.5 mph 32.2 mph N/A   Clear
1:53 PM 46.0 °F 40.6 °F 19.0 °F 34% 30.15 in 10.0 mi WNW 11.5 mph 25.3 mph N/A   Clear
2:53 PM 46.9 °F - 16.0 °F 29% 30.14 in 10.0 mi WNW 21.9 mph 25.3 mph N/A   Clear
3:53 PM 48.0 °F - 16.0 °F 28% 30.15 in 10.0 mi NW 16.1 mph 20.7 mph N/A   Clear
4:53 PM 45.0 °F 38.2 °F 17.1 °F 33% 30.17 in 10.0 mi WNW 15.0 mph 23.0 mph N/A   Clear
5:53 PM 39.9 °F 31.8 °F 16.0 °F 38% 30.21 in 10.0 mi West 15.0 mph - N/A   Clear
6:53 PM 37.9 °F 30.0 °F 16.0 °F 41% 30.25 in 10.0 mi WNW 12.7 mph - N/A   Clear
7:53 PM 36.0 °F 31.1 °F 17.1 °F 46% 30.25 in 10.0 mi WNW 5.8 mph - N/A   Clear
8:53 PM 34.0 °F 27.2 °F 18.0 °F 52% 30.25 in 10.0 mi SSW 8.1 mph - N/A   Clear
9:53 PM 33.1 °F 26.1 °F 19.0 °F 56% 30.26 in 10.0 mi West 8.1 mph - N/A   Clear
10:53 PM 33.1 °F 26.1 °F 17.1 °F 52% 30.25 in 10.0 mi West 8.1 mph - N/A   Clear
11:53 PM 28.0 °F 19.3 °F 17.1 °F 63% 30.26 in 10.0 mi West 9.2 mph - N/A   Clear